カタログに戻る

OPS 4682 DEB

運用中PO
NORAD 15530·DEBRIS·🇺🇸 United States

打ち上げ Apr 3, 1965 から Vandenberg Space Force Base

Loading…

次のパス (今後24時間)

TLE

最新Source: Space-Track

元期: Sep 12, 2026, 21:06 UTC

1 15530U 65027T   26255.87945396  .00000709  00000-0  23683-2 0  9995
2 15530  90.2910  34.9190 0033914 155.2053 358.4010 12.98741057 69037

AllMySatでOPS 4682 DEBをリアルタイム追跡

Download on the App Store